Content
SEND FEEDBACK

Daily
Averages
Monthly
Summary
United States of America

UMATAC, GUAM


Home > North America > United States > Guam
Elevation: 190 feet     Latitude: 13 17N     Longitude: 144 40E

WEATHER
 
SELECT A DAY
Number of Records: 342,429;   Date Range: 1/1/95 - 9/3/14
 
SHARE

PRINT THIS DATA

[ ← Previous Day ]
WEATHER ALMANAC - MAY 15, 2013
[ Next Day → ]
[ °C ]   °F
Weather ElementAverageHighLow
Temperature81.7 °F86.9 °F (1:55 pm)78.8 °F (3:44 am)
Dewpoint75.5 °F77.7 °F (8:55 am)74.8 °F (2:55 pm)
Humidity81.9 %89 % (3:44 am)68 % (2:55 pm)
Barometer29.86 in29.91 in (10:51 pm)29.80 in (2:55 pm)
Wind Speed12.9 mph17.3 mph (8:20 am)
Wind Gust23 mph (8:20 am)
Weather ElementAverage
Visibility9.9 mi
Wind DirectionENE (84 °)

Weather ElementTotal
Precipitation---
Cooling Degree Days17.9 (Base 65)
Growing Degree Days32.9 (Base 50)
Averaged from 88 records on May 15, 2013
WEATHER CONDITIONS BREAKOUT
WIND DIRECTION BREAKOUT
WEATHER BY HOUR - MAY 15, 2013
[ °C ]   °F
Local TimeTemperatureDewpointHumidityBarometerVisibilityWind DirectionWind SpeedGust SpeedPrecipitationEventsConditions
12:55 AM79.9 °F75.0 °F85 %29.85 in10.0 miEast (90°)11.5 mphMostly Cloudy
1:08 AM80.6 °F75.2 °F84 %29.85 in10.0 miEast (90°)12.7 mphMostly Cloudy
1:19 AM80.6 °F75.2 °F84 %29.85 in10.0 miEast (100°)11.5 mphScattered Clouds
1:28 AM80.6 °F75.2 °F84 %29.85 in10.0 miEast (90°)11.5 mphMostly Cloudy
1:30 AM80.6 °F75.2 °F84 %29.85 in10.0 miEast (100°)10.4 mphScattered Clouds
1:55 AM79.7 °F75.4 °F87 %29.85 in10.0 miEast (100°)8.1 mphPartly Cloudy
2:55 AM79.7 °F75.0 °F86 %29.84 in10.0 miEast (90°)12.7 mphScattered Clouds
2:59 AM80.6 °F75.2 °F84 %29.84 in10.0 miEast (90°)11.5 mphMostly Cloudy
3:01 AM80.6 °F75.2 °F84 %29.84 in10.0 miEast (80°)9.2 mphScattered Clouds
3:38 AM80.6 °F75.2 °F84 %29.84 in10.0 miEast (80°)8.1 mphMostly Cloudy
3:40 AM80.6 °F75.2 °F84 %29.84 in10.0 miEast (80°)9.2 mphScattered Clouds
3:42 AM80.6 °F75.2 °F84 %29.84 in10.0 miEast (90°)9.2 mphMostly Cloudy
3:44 AM78.8 °F75.2 °F89 %29.84 in10.0 miEast (80°)8.1 mphScattered Clouds
3:55 AM79.7 °F75.4 °F87 %29.84 in10.0 miEast (90°)8.1 mphScattered Clouds
4:18 AM80.6 °F75.2 °F84 %29.85 in10.0 miEast (80°)9.2 mphMostly Cloudy
4:33 AM78.8 °F75.2 °F89 %29.85 in10.0 miEast (90°)10.4 mphScattered Clouds
4:55 AM79.2 °F75.4 °F88 %29.85 in10.0 miEast (80°)10.4 mphScattered Clouds
5:55 AM79.2 °F75.4 °F88 %29.86 in10.0 miEast (80°)6.9 mphPartly Cloudy
6:55 AM81.0 °F75.4 °F83 %29.88 in10.0 miENE (70°)11.5 mphScattered Clouds
7:44 AM82.4 °F75.2 °F79 %29.89 in10.0 miEast (90°)9.2 mphMostly Cloudy
7:55 AM82.0 °F75.7 °F81 %29.89 in10.0 miEast (90°)11.5 mphMostly Cloudy
8:00 AM82.4 °F75.2 °F79 %29.89 in10.0 miEast (90°)10.4 mphMostly Cloudy
8:20 AM80.6 °F75.2 °F84 %29.89 in8.0 miENE (70°)17.3 mph23.0 mphRainLight Rain
8:31 AM80.6 °F77.0 °F89 %29.90 in7.0 miENE (70°)12.7 mphScattered Clouds
8:38 AM80.6 °F75.2 °F84 %29.90 in10.0 miENE (60°)10.4 mphMostly Cloudy
8:50 AM82.4 °F77.0 °F84 %29.90 in10.0 miENE (70°)11.5 mphScattered Clouds
8:55 AM82.8 °F77.7 °F85 %29.90 in10.0 miENE (70°)12.7 mph0.00 inScattered Clouds
9:26 AM84.2 °F77.0 °F79 %29.90 in10.0 miENE (70°)13.8 mphMostly Cloudy
9:44 AM84.2 °F75.2 °F74 %29.90 in10.0 miEast (80°)13.8 mphScattered Clouds
9:55 AM84.9 °F75.6 °F73 %29.89 in10.0 miEast (90°)13.8 mphPartly Cloudy
10:27 AM84.2 °F75.2 °F74 %29.89 in10.0 miEast (90°)12.7 mphMostly Cloudy
10:55 AM85.8 °F75.9 °F72 %29.88 in10.0 miEast (90°)15.0 mphMostly Cloudy
11:55 AM85.6 °F77.0 °F75 %29.86 in10.0 miEast (80°)15.0 mphMostly Cloudy
12:04 PM86.0 °F77.0 °F74 %29.86 in10.0 miEast (90°)13.8 mphMostly Cloudy
12:55 PM86.4 °F76.3 °F72 %29.85 in10.0 miEast (90°)15.0 mphMostly Cloudy
1:55 PM86.9 °F76.6 °F71 %29.81 in10.0 miEast (80°)17.3 mphPartly Cloudy
2:55 PM86.4 °F74.8 °F68 %29.80 in10.0 miEast (100°)17.3 mphClear
3:33 PM84.2 °F77.0 °F79 %29.80 in10.0 miEast (90°)15.0 mphMostly Cloudy
3:47 PM86.0 °F77.0 °F74 %29.80 in10.0 miEast (80°)15.0 mphScattered Clouds
3:48 PM84.2 °F77.0 °F79 %29.80 in10.0 miEast (80°)15.0 mphMostly Cloudy
3:50 PM84.2 °F77.0 °F79 %29.80 in10.0 miENE (70°)15.0 mph20.7 mphScattered Clouds
3:52 PM84.2 °F77.0 °F79 %29.80 in10.0 miENE (70°)17.3 mph20.7 mphMostly Cloudy
3:55 PM85.1 °F76.5 °F75 %29.80 in10.0 miENE (70°)16.1 mphMostly Cloudy
4:01 PM84.2 °F77.0 °F79 %29.80 in10.0 miEast (80°)12.7 mph21.9 mphMostly Cloudy
4:20 PM84.2 °F75.2 °F74 %29.80 in10.0 miEast (80°)15.0 mphMostly Cloudy
4:30 PM84.2 °F75.2 °F74 %29.81 in10.0 miEast (90°)16.1 mphScattered Clouds
4:55 PM84.2 °F74.8 °F73 %29.81 in10.0 miEast (90°)16.1 mphScattered Clouds
5:40 PM82.4 °F75.2 °F79 %29.82 in10.0 miEast (90°)15.0 mphMostly Cloudy
5:44 PM82.4 °F75.2 °F79 %29.82 in10.0 miEast (90°)13.8 mphScattered Clouds
5:55 PM82.0 °F74.8 °F79 %29.83 in10.0 miEast (80°)12.7 mphScattered Clouds
6:55 PM81.1 °F75.4 °F83 %29.84 in10.0 miEast (90°)15.0 mphScattered Clouds
6:56 PM80.6 °F75.2 °F84 %29.84 in10.0 miEast (90°)13.8 mphMostly Cloudy
6:59 PM80.6 °F75.2 °F84 %29.84 in10.0 miEast (90°)13.8 mphScattered Clouds
7:02 PM80.6 °F75.2 °F84 %29.84 in10.0 miEast (80°)12.7 mphMostly Cloudy
7:04 PM80.6 °F75.2 °F84 %29.84 in10.0 miEast (80°)13.8 mphScattered Clouds
7:05 PM80.6 °F75.2 °F84 %29.84 in10.0 miEast (80°)13.8 mphMostly Cloudy
7:07 PM80.6 °F75.2 °F84 %29.84 in10.0 miEast (80°)13.8 mphScattered Clouds
7:16 PM80.6 °F75.2 °F84 %29.84 in10.0 miEast (80°)12.7 mphMostly Cloudy
7:27 PM80.6 °F75.2 °F84 %29.84 in10.0 miEast (80°)13.8 mphScattered Clouds
7:39 PM80.6 °F75.2 °F84 %29.84 in10.0 miEast (80°)13.8 mphMostly Cloudy
7:40 PM80.6 °F75.2 °F84 %29.84 in10.0 miEast (80°)13.8 mphScattered Clouds
7:41 PM80.6 °F75.2 °F84 %29.84 in10.0 miEast (80°)12.7 mphMostly Cloudy
7:48 PM80.6 °F75.2 °F84 %29.84 in10.0 miEast (80°)16.1 mphMostly Cloudy
7:51 PM80.6 °F75.2 °F84 %29.84 in10.0 miEast (90°)15.0 mphMostly Cloudy
7:52 PM80.6 °F75.2 °F84 %29.84 in10.0 miEast (90°)15.0 mphScattered Clouds
7:55 PM80.8 °F74.8 °F82 %29.85 in10.0 miEast (90°)15.0 mphScattered Clouds
8:55 PM80.8 °F75.6 °F84 %29.87 in10.0 miEast (100°)12.7 mphPartly Cloudy
9:19 PM80.6 °F75.2 °F84 %29.88 in10.0 miEast (90°)16.1 mphMostly Cloudy
9:32 PM80.6 °F75.2 °F84 %29.88 in10.0 miEast (80°)15.0 mphScattered Clouds
9:47 PM80.6 °F75.2 °F84 %29.89 in10.0 miEast (80°)13.8 mphMostly Cloudy
9:53 PM80.6 °F75.2 °F84 %29.89 in10.0 miEast (90°)11.5 mphScattered Clouds
9:55 PM80.6 °F74.8 °F83 %29.89 in10.0 miEast (90°)13.8 mphScattered Clouds
10:19 PM80.6 °F75.2 °F84 %29.90 in10.0 miEast (90°)16.1 mphMostly Cloudy
10:34 PM80.6 °F75.2 °F84 %29.90 in10.0 miEast (90°)13.8 mphScattered Clouds
10:39 PM80.6 °F75.2 °F84 %29.90 in10.0 miEast (80°)11.5 mphMostly Cloudy
10:51 PM80.6 °F75.2 °F84 %29.91 in10.0 miEast (90°)11.5 mphScattered Clouds
10:53 PM80.6 °F75.2 °F84 %29.91 in10.0 miEast (80°)13.8 mphMostly Cloudy
10:55 PM80.8 °F75.2 °F83 %29.91 in10.0 miEast (80°)11.5 mphScattered Clouds
10:58 PM80.6 °F75.2 °F84 %29.91 in10.0 miEast (80°)12.7 mphMostly Cloudy
11:02 PM80.6 °F75.2 °F84 %29.91 in10.0 miEast (90°)15.0 mphScattered Clouds
11:23 PM80.6 °F75.2 °F84 %29.90 in10.0 miEast (90°)12.7 mphMostly Cloudy
11:34 PM80.6 °F75.2 °F84 %29.90 in10.0 miEast (80°)12.7 mphMostly Cloudy
11:38 PM80.6 °F75.2 °F84 %29.90 in10.0 miEast (80°)12.7 mphMostly Cloudy
11:41 PM80.6 °F75.2 °F84 %29.90 in10.0 miEast (90°)12.7 mphMostly Cloudy
11:50 PM80.6 °F75.2 °F84 %29.90 in10.0 miEast (80°)10.4 mphMostly Cloudy
11:51 PM80.6 °F75.2 °F84 %29.90 in10.0 miEast (80°)10.4 mphMostly Cloudy
11:54 PM80.6 °F75.2 °F84 %29.90 in10.0 miEast (80°)12.7 mphScattered Clouds
11:55 PM80.8 °F75.9 °F85 %29.90 in10.0 miEast (80°)12.7 mphScattered Clouds
Hourly data recorded from PGUA, located miles away from Umatac, Guam







STORIES FROM OUR PARTNERS